User: anonymous   Login
Location: Stonelick Lake State Park
(39.2170°N, 84.0850°W)
Time: 21:41:06
(UTC-04:00)
Language:

Abrixas rocket - Orbit

View from above orbital plane
View from above orbital plane
View from above satellite
View from above satellite

Ground track
Ground track

The orbit data is extracted from the following two-line orbital elements,

1 25723U 99022C   16126.56125442  .00007265  00000-0  14419-3 0  9998
2 25723  48.4174 170.9355 0012285 241.2183 239.2062 15.47924661943227
Epoch (UTC): 05 May 2016 13:28:12
Eccentricity: 0.0012285
inclination: 48.4174°
perigee height: 414 km
apogee height: 431 km
right ascension of ascending node: 170.9355°
argument of perigee: 241.2183°
revolutions per day: 15.47924661
mean anomaly at epoch: 239.2062°
orbit number at epoch: 94322

The dashed part of the orbit path shows where the satellite is in the earth's shadow,  

DLR